Simultaneous Nadir Overpasses (SNOs) Predictions

Prediction of SNOs between AQUA and METOP-B Satellite Orbit:

Table of predicted SNOs for the next 14.0 days since TLE Epoch: 3/29/2013
Index Date (AQUA) Time (AQUA) Lat,Lon (AQUA) SZA (AQUA ) Date (METOP-B) Time (METOP-B) Lat,Lon (METOP-B) SZA (METOP-B ) Distance(km) Time Diff (sec)
1 03/30/2013 18:30:50 -73.71, 76.79 110.32 03/30/2013 18:29:40 -73.71, 76.90 110.31 3.31 70
2 03/30/2013 19:20:19 73.77,-115.71 69.74 03/30/2013 19:20:18 73.77,-115.63 69.74 2.67 1
3 03/30/2013 20:09:46 -73.85, 51.75 110.19 03/30/2013 20:10:59 -73.84, 51.86 110.22 3.72 73
4 04/02/2013 14:05:08 -73.68, 143.29 111.44 04/02/2013 14:04:02 -73.68, 143.24 111.43 1.74 66
5 04/02/2013 14:54:37 73.75, -49.23 68.62 04/02/2013 14:54:40 73.73, -49.30 68.61 2.70 3
6 04/02/2013 15:44:06 -73.93, 118.02 111.20 04/02/2013 15:45:18 -73.96, 118.56 111.20 17.08 72
7 04/05/2013 09:39:27 -73.67,-150.28 112.53 04/05/2013 09:38:24 -73.70,-150.31 112.49 2.99 63
8 04/05/2013 10:28:56 73.75, 17.20 67.54 04/05/2013 10:29:02 73.74, 17.13 67.54 2.03 6
9 04/05/2013 11:18:28 -74.08,-175.90 112.12 04/05/2013 11:19:38 -74.07,-174.75 112.17 35.14 70
10 04/08/2013 05:13:46 -73.70, -83.90 113.56 04/08/2013 05:12:46 -73.71, -83.88 113.55 1.36 60
11 04/08/2013 06:03:15 73.78, 83.56 66.51 04/08/2013 06:03:24 73.75, 83.56 66.48 3.13 9
12 04/08/2013 06:52:49 -74.21,-109.77 113.05 04/08/2013 06:53:58 -74.18,-108.07 113.13 51.77 69
13 04/11/2013 00:48:04 -73.71, -17.48 114.61 04/11/2013 00:47:08 -73.72, -17.45 114.59 1.68 56
14 04/11/2013 01:37:33 73.79, 149.97 65.47 04/11/2013 01:37:46 73.76, 149.98 65.44 3.76 13




NCC Satellite Simultaneous Nadir Overpasses (SNOs) Prediction Service
